Showing default

ALOUETTE 2, 1804

Orbit data source: Space-Track

ALOUETTE 2, 1804 is a payload satellite owned by DRTE (CA) in LEO that was launched on Mon, 29 Nov 1965 UTC via a THOR SLV-2 AGENA B launch vehicle from the Air Force Western Test Range (AFWTR). Payload-class satellites include a variety of spacecraft equipped with specific instruments for various scientific and technological missions. These include communications satellites like Starlink; space stations such as the ISS; scientific satellites like the Hubble; Earth observation satellites from companies like Planet Labs, Umbra, and HawkEye 360; GPS; miniature CubeSats for education and research; and military/defense satellites.

Loading next visibility...
Identifier
1804, 1965-098A
Orbit
LEO
Country
Flag of CACA
Related business
Manufacturer
DEHAVT/RCAV
Mission
Spacecraft
Bus & Motor
ALOUETTE, Unknown motor
Mass
145 kg wet, 145 kg dry
Launch date (UTC)
1965-11-29 (60 years ago)
Launch vehicle
THOR SLV-2 AGENA B
Launch site
Air Force Western Test Range (AFWTR)
Object type
Payload
Rocket body
Debris
Shape & HBR
Unknown
Radar Cross Section
Medium (>0.1 m² and <1 m²)

Expand to show TLE details & history
Last TLE update: 10 hours ago

TLE from 10 hours ago
0 ALOUETTE 2
1  1804U 65098A   26036.38044366  .00000416  00000-0  13007-3 0  9997
2  1804  79.7993  28.7789 1330990 139.7641 231.0062 12.28202210663094
Epoch: 2026-02-05T09:07Z
TLE epoch observation values (Epoch: 2026-02-05T09:07:50.332Z)
Latitude
-0.00007°
Longitude
116.28567°
Altitude
2,299.338 km
Speed
6.455 km/s
True Right ascension
01h 55m 06s
True Declination
0° 00' 00"
Sunlit
Object was in daylight at epoch
Visualization orbit readout
Latitude
Unknown
Longitude
Unknown
Altitude
Unknown
Speed
Unknown
Apparent Right ascension
Unknown
Apparent Declination
Unknown
Sunlit
N/A
Visualization observer readout
Local Sidereal Time
20:52:22
Azimuth
Unknown
Elevation
Unknown
Doppler factor
Unknown
Orbital elements
Apogee altitude
2,610.256 km
Perigee altitude
498.621 km
Semi-major axis
7,932.575 km
Eccentricity
0.1331
Inclination
79.7993°
RAAN
28.7789°
Arg. of periapsis
139.7641°
True anomaly
220.34009°
Mean anomaly
231.0062°
Eccentric anomaly
225.56123°
Mean motion
3.072 °/min
Orbital period
117.19 mins
BSTAR
0.00013007
Loading maneuver chart data...
Computing Atmospheric mass density...
Loading historical data...
Loading historical data...
Loading historical data...
Loading historical data...
Loading historical data...
Loading historical data...
Loading historical data...

Documentation

Showing up to 5 results
|